STSAT-3

Last updated on Fri Sep 11 2026 00:03:31 GMT+0000 (Coordinated Universal Time)

1 39422U 13066G 26253.59755497 .00001683 00000+0 12896-3 0 9991 2 39422 97.6297 222.1604 0010665 103.1824 257.0592 15.03155741697033
UTC large
Height (km)
Speed (km/s)
/
Latitude / Longitude
Inclination (degrees)
Orbital Period (minutes)
Azimuth
Elevation
Range (km)
Doppler Factor

Next 0 passes for location: London (51.5072 / 0.1276)

No passes found over London.
STSAT-3